Weather History for Everett, WA

Change the Weather History Date:

Sunday, December 22, 2013

  Actual Average Record
Temperature  
Mean Temperature 44 °F -  
Max Temperature 48 °F 42 °F 57 °F (1950)
Min Temperature 41 °F 32 °F 7 °F (1990)
Degree Days  
Heating Degree Days 20    
Moisture  
Dew Point 42 °F    
Average Humidity 93    
Maximum Humidity 100    
Minimum Humidity 87    
Precipitation  
Precipitation 0.29 in - - ()
Sea Level Pressure  
Sea Level Pressure 30.24 in    
Wind  
Wind Speed 6 mph (SE)    
Max Wind Speed 15 mph    
Max Gust Speed 25 mph    
Visibility 3 miles    
Events Fog , Rain    
Averages and records for this station are not official NWS values.
T = Trace of Precipitation, MM = Missing Value Source: NWS Daily Summary

Daily Weather History Graph

Daily Weather History Graph

Search for Another Location

Airport:

Trip Planner

Search our weather history database for the weather conditions in past years. The results will help you decide how hot, cold, wet, or windy it might be!

Date:

Astronomy

Dec. 22, 2013 Rise Set
Actual Time 7:56 AM PST 4:19 PM PST
Civil Twilight 7:20 AM PST 4:55 PM PST
Nautical Twilight 6:40 AM PST 5:35 PM PST
Astronomical Twilight 6:02 AM PST 6:13 PM PST
Moon 9:59 PM PST (12/22) 10:35 AM PST (12/22)
Length of Visible Light 9h 35m
Length of Day
8h 23m
Waning Gibbous, 76% of the Moon is Illuminated
Dec 22
Waning Gibbous
Dec 25
Last Quarter
Jan 1
New
Jan 7
First Quarter
Jan 15
Full

Hourly Weather History & Observations

Time (PST) Temp. Windchill Dew Point Humidity Pressure Visibility Wind Dir Wind Speed Gust Speed Precip Events Conditions
12:05 AM 41.0 °F 38.0 °F 39.2 °F 93% 30.17 in 4.0 mi ESE 4.6 mph - 0.00 in Rain Light Rain
12:53 AM 41.0 °F 37.1 °F 39.0 °F 93% 30.18 in 5.0 mi ESE 5.8 mph - 0.03 in Rain Light Rain
1:30 AM 42.8 °F 39.3 °F 39.2 °F 87% 30.16 in 5.0 mi ESE 5.8 mph - 0.01 in Rain Light Rain
1:37 AM 42.8 °F 39.3 °F 39.2 °F 87% 30.16 in 4.0 mi ESE 5.8 mph - 0.02 in Rain Light Rain
1:53 AM 42.1 °F 40.2 °F 39.9 °F 92% 30.18 in 4.0 mi ESE 3.5 mph - 0.03 in Rain Light Rain
2:00 AM 42.8 °F 40.1 °F 39.2 °F 87% 30.17 in 4.0 mi ESE 4.6 mph - 0.01 in Rain Light Rain
2:28 AM 42.8 °F 38.6 °F 39.2 °F 87% 30.18 in 4.0 mi ESE 6.9 mph - 0.02 in Rain Light Rain
2:51 AM 42.8 °F 39.3 °F 39.2 °F 87% 30.19 in 3.0 mi ESE 5.8 mph - 0.04 in Rain Light Rain
2:53 AM 42.1 °F 38.4 °F 39.9 °F 92% 30.20 in 4.0 mi ESE 5.8 mph - 0.04 in Rain Light Rain
3:53 AM 42.1 °F 38.4 °F 39.9 °F 92% 30.19 in 6.0 mi ESE 5.8 mph - 0.03 in Rain Light Rain
4:53 AM 42.1 °F 38.4 °F 39.9 °F 92% 30.19 in 3.0 mi ESE 5.8 mph - 0.01 in Rain Light Rain
5:53 AM 41.0 °F 37.1 °F 39.9 °F 96% 30.20 in 4.0 mi ESE 5.8 mph - 0.02 in Rain Light Rain
6:48 AM 41.0 °F 37.1 °F 39.2 °F 93% 30.19 in 2.5 mi ESE 5.8 mph - 0.00 in   Overcast
6:53 AM 41.0 °F 36.4 °F 39.9 °F 96% 30.21 in 1.0 mi ESE 6.9 mph - 0.00 in   Overcast
7:50 AM 41.0 °F 35.8 °F 39.2 °F 93% 30.20 in 0.5 mi ESE 8.1 mph - 0.01 in Fog , Rain Light Rain
7:53 AM 41.0 °F 35.8 °F 39.0 °F 93% 30.22 in 0.5 mi ESE 8.1 mph - 0.01 in Fog , Rain Light Rain
8:19 AM 41.0 °F 35.8 °F 39.2 °F 93% 30.21 in 0.5 mi ESE 8.1 mph - 0.01 in Fog , Rain Light Rain
8:30 AM 41.0 °F 36.4 °F 39.2 °F 93% 30.21 in 0.5 mi ESE 6.9 mph - 0.01 in Fog , Rain Light Rain
8:53 AM 41.0 °F 35.8 °F 39.9 °F 96% 30.24 in 0.5 mi ESE 8.1 mph - 0.01 in Fog , Rain Light Rain
9:53 AM 42.1 °F 37.7 °F 39.9 °F 92% 30.26 in 0.5 mi ESE 6.9 mph - 0.01 in Fog , Rain Light Rain
10:00 AM 42.8 °F 39.3 °F 39.2 °F 87% 30.25 in 1.0 mi ESE 5.8 mph - 0.00 in Rain Light Rain
10:01 AM 42.8 °F 39.3 °F 41.0 °F 93% 30.25 in 0.5 mi ESE 5.8 mph - 0.00 in Fog , Rain Light Rain
10:53 AM 43.0 °F 38.8 °F 41.0 °F 93% 30.27 in 0.5 mi ESE 6.9 mph - 0.01 in Fog Fog
11:53 AM 43.0 °F 40.3 °F 41.0 °F 93% 30.28 in 0.2 mi ESE 4.6 mph - N/A Fog Fog
12:53 PM 44.1 °F 42.5 °F 43.0 °F 96% 30.27 in 0.2 mi ESE 3.5 mph - 0.02 in Fog Fog
1:53 PM 44.1 °F 40.8 °F 42.1 °F 93% 30.27 in 0.2 mi ESE 5.8 mph - 0.00 in Fog Fog
2:00 PM 44.6 °F - 42.8 °F 93% 30.26 in 0.5 mi Calm Calm - N/A Fog Fog
2:16 PM 44.6 °F 41.4 °F 42.8 °F 93% 30.26 in 1.8 mi SSE 5.8 mph - N/A   Overcast
2:53 PM 45.0 °F 42.6 °F 44.1 °F 97% 30.29 in 1.8 mi West 4.6 mph - N/A   Overcast
3:00 PM 44.6 °F - 44.6 °F 100% 30.28 in 0.8 mi Calm Calm - N/A   Overcast
3:13 PM 44.6 °F - 44.6 °F 100% 30.28 in 0.2 mi Calm Calm - N/A Fog Fog
3:38 PM 44.6 °F - 44.6 °F 100% 30.28 in 1.0 mi Calm Calm - N/A   Mist
3:50 PM 46.4 °F 44.3 °F 44.6 °F 93% 30.28 in 3.0 mi SSE 4.6 mph - N/A   Overcast
3:53 PM 46.0 °F 44.8 °F 44.1 °F 93% 30.30 in 2.0 mi South 3.5 mph - N/A   Overcast
4:27 PM 46.4 °F 43.5 °F 44.6 °F 93% 30.28 in 1.0 mi South 5.8 mph - N/A   Overcast
4:33 PM 46.4 °F 43.5 °F 44.6 °F 93% 30.28 in 0.5 mi SSE 5.8 mph - N/A   Overcast
4:53 PM 46.9 °F - 45.0 °F 93% 30.29 in 0.8 mi SSE 6.9 mph - N/A   Overcast
5:33 PM 46.4 °F - 44.6 °F 93% 30.29 in 0.8 mi Calm Calm - N/A   Overcast
5:53 PM 46.9 °F - 45.0 °F 93% 30.30 in 0.8 mi SSE 5.8 mph - N/A   Overcast
5:57 PM 46.4 °F 43.5 °F 44.6 °F 93% 30.29 in 2.0 mi SSE 5.8 mph - N/A   Overcast
6:19 PM 46.4 °F 44.3 °F 46.4 °F 100% 30.29 in 4.0 mi South 4.6 mph - 0.01 in Rain Light Rain
6:53 PM 48.0 °F - 46.0 °F 93% 30.29 in 5.0 mi SSE 9.2 mph - 0.02 in Rain Light Rain
7:53 PM 48.0 °F - 46.0 °F 93% 30.29 in 4.0 mi South 10.4 mph - 0.01 in Rain Light Rain
8:53 PM 48.0 °F - 45.0 °F 89% 30.27 in 10.0 mi South 15.0 mph 25.3 mph 0.02 in Rain Light Rain
9:53 PM 48.0 °F - 45.0 °F 89% 30.27 in 10.0 mi South 10.4 mph - 0.01 in Rain Light Rain
10:53 PM 48.0 °F - 45.0 °F 89% 30.25 in 10.0 mi South 12.7 mph - 0.00 in   Overcast
11:53 PM 48.0 °F - 45.0 °F 89% 30.25 in 10.0 mi South 15.0 mph - 0.01 in Rain Light Rain